This is the latest recevied weather packets stored in our database for station/object iz1wiy-3. If no packets are shown the sender has not sent any weather packets the latest 1 day(s).
| Time | Temp. | Humidity | Pressure | Rain* | Wind** | Luminosity | Snow |
|---|---|---|---|---|---|---|---|
| 1778059683 | 18.33° C | 86% | 1010.1 hPa | 0 mm | - | - | - |
| 1778057523 | 17.78° C | 86% | 1009.9 hPa | 0.25 mm | - | - | - |
| 1778056923 | 17.78° C | 87% | 1009.8 hPa | 0.25 mm | - | - | - |
| 1778056863 | 17.78° C | 88% | 1009.8 hPa | 0.25 mm | - | - | - |
| 1778056383 | 17.78° C | 87% | 1009.8 hPa | 0.25 mm | - | - | - |
| 1778055424 | 17.78° C | 88% | 1009.5 hPa | 0 mm | - | - | - |
| 1778055063 | 17.78° C | 86% | 1009.4 hPa | 0 mm | - | - | - |
| 1778054583 | 17.78° C | 88% | 1009.5 hPa | 0 mm | - | - | - |
| 1778052844 | 17.78° C | 87% | 1009.6 hPa | 0 mm | - | - | - |
| 1778052663 | 17.78° C | 87% | 1009.7 hPa | 0 mm | - | - | - |
| 1778052243 | 17.78° C | 87% | 1009.7 hPa | 0 mm | - | - | - |
| 1778052183 | 17.78° C | 87% | 1009.8 hPa | 0 mm | - | - | - |
| 1778052123 | 17.78° C | 87% | 1009.7 hPa | 0 mm | - | - | - |
| 1778051478 | 17.78° C | 85% | 1009.6 hPa | 0 mm | - | - | - |
| 1778051224 | 17.78° C | 88% | 1009.6 hPa | 0 mm | - | - | - |
| 1778050984 | 17.78° C | 86% | 1009.6 hPa | 0 mm | - | - | - |
| 1778050924 | 17.78° C | 86% | 1009.6 hPa | 0 mm | - | - | - |
| 1778050084 | 17.78° C | 87% | 1009.4 hPa | 0.51 mm | - | - | - |
| 1778049663 | 17.78° C | 86% | 1009.5 hPa | 0.76 mm | - | - | - |
| 1778049123 | 17.78° C | 86% | 1009.6 hPa | 1.78 mm | - | - | - |
| 1778048643 | 17.78° C | 86% | 1009.7 hPa | 5.59 mm | - | - | - |
| 1778048523 | 17.78° C | 86% | 1009.6 hPa | 6.1 mm | - | - | - |
| 1778047985 | 17.78° C | 86% | 1009.6 hPa | 13.72 mm | - | - | - |
| 1778047924 | 17.78° C | 86% | 1009.5 hPa | 14.73 mm | - | - | - |
| 1778047443 | 17.78° C | 87% | 1009.3 hPa | 16.51 mm | - | - | - |
* Rain latest hour (hover to see other rain measurements)
** Current wind speed in m/s (hover to see current wind gust speed)